Theta_e
314 313 312 310 309 309 308 307 307 308 309 308 308 309 309 309 310 311 311 311 311 311 311 311 312 311 311 311 310 310 309 308
309 307 307 307 307 307 306 306 307 307 307 306 306 306 307 308 309 310 310 311 309 308 309 310 311 311 311 309 308 305 305 306
307 306 306 307 306 306 307 306 306 306 306 305 305 306 307 307 307 308 309 308 308 308 308 308 308 309 310 305 306 304 305 306
307 307 306 305 305 306 306 305 305 305 305 304 306 306 305 304 304 304 303 303 304 305 306 309 309 310 304 304 305 306 305 303
305 305 305 304 304 304 302 303 304 304 303 304 303 302 302 301 301 300 300 299 300 301 303 307 308 307 303 302 303 305 303 302
303 304 303 301 301 300 301 301 301 301 300 299 299 298 298 298 297 297 297 299 300 298 300 304 305 305 302 300 301 303 303 303
301 301 299 298 297 298 298 297 297 297 296 295 296 296 296 297 297 297 298 298 296 297 300 302 303 304 301 299 300 301 302 302
299 298 298 296 295 295 294 294 296 293 294 294 295 293 293 295 296 296 297 294 296 300 301 302 303 303 301 298 299 302 302 303
299 297 295 294 294 293 291 291 290 293 294 294 293 293 294 295 295 296 296 296 298 299 300 302 303 303 302 298 298 302 302 300
299 296 294 293 292 290 289 289 291 291 292 291 292 292 294 295 294 294 294 296 298 298 298 299 299 300 300 299 298 297 299 299
297 296 294 292 291 291 289 289 291 291 290 290 291 292 293 293 293 293 294 295 295 295 295 297 298 300 300 299 298 297 298 301
295 293 292 291 292 292 291 291 291 291 289 289 290 290 291 292 292 293 293 293 293 294 294 294 296 298 299 302 303 303 300 302
293 291 290 290 291 290 290 292 292 289 289 289 288 289 289 290 291 291 292 293 293 292 293 295 295 295 297 296 295 297 299 299
292 291 290 290 290 289 290 291 293 290 287 287 287 288 289 289 289 290 293 292 293 292 292 292 295 294 293 292 292 292 292 292
292 291 291 290 290 290 289 290 293 290 286 286 286 287 288 288 289 289 288 292 294 294 292 292 291 291 291 293 293 292 291 292
292 291 290 289 289 289 288 291 293 290 289 289 286 286 287 287 287 288 289 289 290 292 294 291 291 290 292 293 296 297 310 307
291 290 290 289 289 289 290 290 291 290 289 288 287 287 287 287 287 288 287 288 288 289 291 290 290 291 293 295 298 306 307 308
288 286 288 288 288 290 291 290 290 291 290 289 288 288 287 287 286 286 286 286 286 287 287 287 287 291 291 293 298 299 302 305
289 287 287 287 287 291 291 290 289 292 291 290 289 288 287 287 286 286 286 286 285 285 286 287 285 288 289 290 292 294 297 303
289 287 286 287 289 290 291 289 289 291 290 289 288 287 288 287 286 286 285 285 285 285 285 286 285 287 287 288 290 292 295 297
Wind_Speed
11 12 11 11 9 8 9 8 8 8 8 7 8 8 7 5 5 4 4 5 6 6 6 7 8 7 7 7 6 5 4 4
10 15 14 13 12 11 10 9 8 8 7 7 7 6 5 5 6 6 5 4 3 3 4 6 6 8 6 5 3 3 5 5
12 13 12 13 12 11 10 9 8 7 7 7 6 5 5 6 6 7 7 7 6 6 6 6 7 6 5 5 7 6 7 10
17 15 15 14 11 10 10 8 7 6 6 6 6 7 7 7 7 7 7 7 7 9 9 8 9 5 8 9 5 7 12 11
17 15 13 12 12 11 9 7 7 7 7 8 10 10 10 9 9 9 8 8 7 7 10 10 6 6 11 10 10 10 11 12
14 13 14 13 14 12 9 9 9 9 9 10 11 11 11 9 8 7 7 8 10 8 10 9 9 8 9 10 13 12 12 12
15 14 13 12 11 8 7 7 7 8 10 10 10 10 10 9 9 10 10 10 9 10 10 10 9 10 10 12 12 11 11 13
14 13 12 9 6 7 7 7 9 9 10 10 10 8 9 10 10 10 8 6 10 9 10 10 11 12 12 13 14 9 12 11
13 10 7 8 9 9 10 10 10 10 10 10 10 9 9 9 9 9 9 9 10 10 10 9 10 10 10 15 18 11 8 8
11 8 9 9 8 7 9 9 10 9 9 9 9 9 8 7 9 8 9 9 9 8 10 9 7 8 11 13 13 10 12 8
7 9 9 6 7 7 9 9 10 10 9 9 9 9 9 9 7 9 7 7 7 7 7 8 9 9 9 14 16 15 13 11
9 9 7 6 7 7 6 7 9 8 11 10 9 9 10 8 7 6 7 7 7 7 7 8 9 9 9 9 8 10 12 14
7 7 6 7 7 5 3 4 7 10 10 9 8 7 9 9 8 7 7 7 6 8 8 8 9 10 10 16 16 11 10 12
7 7 7 7 6 6 6 6 6 7 10 8 8 8 7 7 7 8 6 8 13 13 12 8 7 9 18 21 20 19 18 11
7 7 7 7 7 6 6 5 6 7 7 9 6 8 7 8 9 9 11 13 8 7 10 17 21 20 23 20 17 13 15 4
9 9 8 7 6 5 6 5 5 6 6 13 7 7 8 8 8 8 8 9 10 12 15 19 24 27 22 18 20 8 9 4
10 10 10 9 8 8 5 7 4 5 5 7 7 7 8 9 7 8 8 9 9 10 12 17 24 25 18 22 19 12 11 13
8 9 9 8 8 9 7 9 7 5 4 12 12 8 8 8 8 9 9 10 10 10 11 13 15 15 14 14 14 13 12 11
9 8 7 7 8 9 9 11 10 3 3 4 9 8 9 8 9 9 8 9 9 10 10 12 18 10 11 11 11 12 13 15
7 7 7 7 7 9 8 11 8 7 6 3 7 7 5 9 9 9 9 9 9 10 10 11 18 11 11 11 12 12 12 13
Wind_Direction
103 101 88 82 78 69 61 50 49 42 44 42 36 33 27 8 348 329 321 322 323 353 356 334 324 325 312 283 278 282 320 269
74 80 80 76 72 64 52 39 41 29 29 27 22 6 350 335 327 320 313 299 312 316 300 284 282 271 265 278 328 323 288 292
99 88 78 69 57 51 43 37 29 24 16 4 352 355 358 356 356 356 357 1 347 323 302 291 282 290 305 342 327 324 321 315
91 80 70 65 57 53 43 23 8 5 357 356 351 10 10 11 10 1 4 354 346 334 319 304 298 292 303 308 323 310 309 302
83 78 71 60 59 46 30 9 357 1 1 11 17 12 9 4 359 356 347 338 325 315 306 300 291 297 313 307 310 312 299 287
79 75 66 52 43 33 11 5 12 2 19 12 10 1 352 348 343 329 319 315 313 310 302 307 307 307 298 302 302 302 290 281
75 69 66 56 41 15 7 13 2 19 9 360 353 347 334 329 326 321 316 313 312 298 294 292 304 299 290 288 291 298 284 283
83 74 65 57 30 14 20 7 18 4 354 347 338 327 314 315 314 312 302 282 287 287 295 296 289 290 287 285 294 294 292 289
92 91 94 71 41 27 25 16 2 342 343 334 325 317 316 314 315 308 308 303 296 291 292 291 289 291 300 298 293 298 282 286
114 111 91 77 60 45 31 11 345 333 328 318 323 319 316 316 312 312 310 300 305 319 312 305 298 300 297 294 288 259 280 282
85 100 104 103 98 66 35 1 351 337 333 330 323 326 324 320 319 326 322 324 319 313 313 310 313 317 307 295 285 280 289 292
69 67 69 68 77 81 38 10 349 338 351 343 339 336 334 340 334 329 322 318 316 315 315 311 304 303 303 305 309 314 306 288
72 74 70 79 72 71 91 2 345 354 345 347 342 334 339 338 339 327 316 305 301 307 303 298 307 310 310 311 299 301 290 292
63 55 71 71 66 48 36 9 359 356 354 354 347 342 338 336 330 327 315 299 305 306 294 270 336 305 306 299 294 292 290 303
57 51 63 60 40 39 11 4 21 19 357 353 340 351 345 349 353 352 344 342 335 325 340 356 357 345 329 325 316 307 294 270
58 49 45 45 25 20 354 357 58 42 23 9 358 355 356 359 349 347 347 350 349 348 354 356 356 352 340 338 347 317 5 12
52 49 39 30 11 344 357 355 36 73 39 27 6 360 6 4 348 0 2 359 360 354 354 358 360 351 340 6 17 31 10 359
61 48 33 22 359 335 353 351 7 136 77 53 32 12 7 6 10 13 10 8 5 8 8 3 349 357 12 3 6 8 7 0
76 60 34 9 349 336 359 0 354 115 130 72 50 31 17 13 19 17 13 14 8 11 8 1 352 5 5 1 1 4 1 4
56 57 33 0 355 352 5 7 356 25 38 88 44 28 19 15 19 24 19 16 14 14 9 3 5 15 10 5 5 7 1 359